Location: Aragoneses
(41.0275°N, 4.3847°W)
Time: 16:30:02
(UTC+00:00)

SPOT 1/Viking Rocket - Pass Details

Date: 19 March 2026
Orbit: 773 x 789 km, 98.2° (Epoch: 18 April)

Event Time Altitude Azimuth Distance (km) Brightness Sun altitude
Rises 19:34:24 0° 208° (SSW) 3,253 7.0 -13.2°
Reaches altitude 10° 19:37:31 10° 228° (SW) 2,334 6.5 -13.7°
Maximum altitude 19:40:49 17° 269° (W) 1,892 6.6 -14.4°
Drops below altitude 10° 19:44:10 10° 309° (NW) 2,351 7.0 -15.0°
Sets 19:47:20 0° 329° (NNW) 3,288 7.5 -15.5°
